| time (UTC) | temp F | wind direction | speed MPH | gust MPH | rain 1hr in | rain 24hr in | rain mn in | humidity % | barometer mb |
| 20260905180701 | 84 | 164 | 3.0 | 9.0 | 0.00 | 0.36 | 0.36 | 67 | 1012.6 |
| 20260905180429 | 83 | 111 | 4.0 | 8.0 | 0.00 | 0.36 | 0.36 | 67 | 1012.7 |
| 20260905180002 | 83 | 144 | 3.0 | 10.0 | 0.00 | 0.36 | 0.36 | 67 | 1012.6 |
| 20260905175429 | 83 | 146 | 3.0 | 10.0 | 0.00 | 0.36 | 0.36 | 67 | 1012.7 |
| 20260905175306 | 83 | 146 | 3.0 | 10.0 | 0.00 | 0.36 | 0.36 | 67 | 1012.7 |
| 20260905174601 | 83 | 133 | 3.0 | 11.0 | 0.00 | 0.36 | 0.36 | 67 | 1012.7 |
| 20260905174429 | 82 | 105 | 3.0 | 11.0 | 0.00 | 0.36 | 0.36 | 68 | 1012.6 |
| 20260905173904 | 82 | 134 | 2.0 | 10.0 | 0.00 | 0.36 | 0.36 | 70 | 1012.7 |
| 20260905173428 | 82 | 94 | 4.0 | 10.0 | 0.00 | 0.36 | 0.36 | 71 | 1012.6 |
| 20260905173200 | 82 | 94 | 4.0 | 10.0 | 0.00 | 0.36 | 0.36 | 71 | 1012.6 |
| 20260905172500 | 81 | 145 | 4.0 | 12.0 | 0.00 | 0.36 | 0.36 | 71 | 1012.5 |
| 20260905172428 | 81 | 145 | 4.0 | 12.0 | 0.00 | 0.36 | 0.36 | 71 | 1012.5 |
| 20260905171759 | 81 | 137 | 5.0 | 12.0 | 0.00 | 0.36 | 0.36 | 70 | 1012.5 |
| 20260905171429 | 81 | 122 | 3.0 | 10.0 | 0.00 | 0.36 | 0.36 | 71 | 1012.5 |
| 20260905171103 | 81 | 122 | 3.0 | 10.0 | 0.00 | 0.36 | 0.36 | 71 | 1012.5 |
| 20260905170429 | 81 | 177 | 2.0 | 10.0 | 0.00 | 0.36 | 0.36 | 74 | 1012.4 |
| 20260905170400 | 81 | 177 | 2.0 | 10.0 | 0.00 | 0.36 | 0.36 | 74 | 1012.4 |
| 20260905165702 | 80 | 120 | 3.0 | 9.0 | 0.00 | 0.36 | 0.36 | 73 | 1012.4 |
| 20260905165428 | 80 | 137 | 3.0 | 9.0 | 0.00 | 0.36 | 0.36 | 73 | 1012.6 |
| 20260905165000 | 80 | 139 | 2.0 | 9.0 | 0.00 | 0.36 | 0.36 | 74 | 1012.6 |
| 20260905164429 | 79 | 128 | 3.0 | 11.0 | 0.00 | 0.36 | 0.36 | 75 | 1012.6 |
| 20260905164300 | 79 | 128 | 3.0 | 11.0 | 0.00 | 0.36 | 0.36 | 75 | 1012.6 |
| 20260905163600 | 79 | 119 | 3.0 | 11.0 | 0.00 | 0.36 | 0.36 | 75 | 1012.7 |
| 20260905163428 | 78 | 110 | 5.0 | 11.0 | 0.00 | 0.36 | 0.36 | 76 | 1012.8 |
| 20260905162902 | 78 | 114 | 4.0 | 11.0 | 0.00 | 0.36 | 0.36 | 77 | 1012.9 |
| 20260905162428 | 78 | 138 | 3.0 | 10.0 | 0.00 | 0.36 | 0.36 | 78 | 1012.9 |
| 20260905162200 | 78 | 138 | 3.0 | 10.0 | 0.00 | 0.36 | 0.36 | 78 | 1012.9 |
| 20260905161500 | 77 | 98 | 4.0 | 7.0 | 0.00 | 0.36 | 0.36 | 78 | 1012.8 |
| 20260905161428 | 77 | 98 | 4.0 | 7.0 | 0.00 | 0.36 | 0.36 | 78 | 1012.8 |
| 20260905160759 | 77 | 120 | 3.0 | 8.0 | 0.00 | 0.36 | 0.36 | 79 | 1012.7 |
| 20260905160427 | 77 | 117 | 3.0 | 8.0 | 0.00 | 0.36 | 0.36 | 80 | 1012.7 |
| 20260905160059 | 77 | 117 | 3.0 | 8.0 | 0.00 | 0.36 | 0.36 | 80 | 1012.7 |
| 20260905155427 | 76 | 179 | 3.0 | 8.0 | 0.00 | 0.36 | 0.36 | 82 | 1012.5 |
| 20260905155359 | 76 | 179 | 3.0 | 8.0 | 0.00 | 0.36 | 0.36 | 82 | 1012.5 |
| 20260905154659 | 76 | 129 | 3.0 | 7.0 | 0.00 | 0.36 | 0.36 | 82 | 1012.6 |
| 20260905154427 | 75 | 114 | 2.0 | 7.0 | 0.00 | 0.36 | 0.36 | 83 | 1012.8 |
| 20260905154000 | 74 | 101 | 3.0 | 8.0 | 0.00 | 0.36 | 0.36 | 84 | 1012.8 |
| 20260905153427 | 74 | 87 | 5.0 | 8.0 | 0.00 | 0.36 | 0.36 | 83 | 1012.6 |
| 20260905153258 | 74 | 87 | 5.0 | 8.0 | 0.00 | 0.36 | 0.36 | 83 | 1012.6 |
| 20260905152601 | 74 | 84 | 3.0 | 8.0 | 0.00 | 0.36 | 0.36 | 84 | 1012.8 |
| 20260905152429 | 74 | 91 | 4.0 | 8.0 | 0.00 | 0.36 | 0.36 | 84 | 1012.8 |
| 20260905151902 | 73 | 89 | 5.0 | 9.0 | 0.00 | 0.36 | 0.36 | 83 | 1012.8 |
| 20260905151429 | 73 | 93 | 5.0 | 9.0 | 0.00 | 0.36 | 0.36 | 83 | 1012.3 |
| 20260905151201 | 73 | 93 | 5.0 | 9.0 | 0.00 | 0.36 | 0.36 | 83 | 1012.3 |
| 20260905150501 | 73 | 91 | 4.0 | 8.0 | 0.00 | 0.36 | 0.36 | 83 | 1012.4 |
| 20260905150429 | 73 | 91 | 4.0 | 8.0 | 0.00 | 0.36 | 0.36 | 83 | 1012.4 |
| 20260905145800 | 73 | 94 | 4.0 | 8.0 | 0.00 | 0.36 | 0.36 | 83 | 1012.3 |
| 20260905145429 | 73 | 93 | 4.0 | 7.0 | 0.00 | 0.36 | 0.36 | 83 | 1012.4 |
| 20260905145100 | 73 | 93 | 4.0 | 7.0 | 0.00 | 0.36 | 0.36 | 83 | 1012.4 |
| 20260905144428 | 73 | 93 | 4.0 | 8.0 | 0.00 | 0.36 | 0.36 | 83 | 1012.6 |
| 20260905144400 | 73 | 93 | 4.0 | 8.0 | 0.00 | 0.36 | 0.36 | 83 | 1012.6 |
| 20260905143701 | 73 | 95 | 3.0 | 8.0 | 0.00 | 0.36 | 0.36 | 82 | 1012.6 |
| 20260905143428 | 73 | 76 | 2.0 | 7.0 | 0.00 | 0.36 | 0.36 | 82 | 1012.5 |
| 20260905143002 | 73 | 88 | 4.0 | 8.0 | 0.00 | 0.36 | 0.36 | 81 | 1012.3 |
| 20260905142428 | 73 | 91 | 3.0 | 9.0 | 0.00 | 0.36 | 0.36 | 82 | 1012.4 |
| 20260905142259 | 73 | 91 | 3.0 | 9.0 | 0.00 | 0.36 | 0.36 | 82 | 1012.4 |
| 20260905141603 | 73 | 111 | 3.0 | 9.0 | 0.00 | 0.36 | 0.36 | 81 | 1012.4 |
| 20260905141428 | 73 | 91 | 4.0 | 10.0 | 0.00 | 0.36 | 0.36 | 82 | 1012.4 |
| 20260905140900 | 72 | 115 | 4.0 | 11.0 | 0.00 | 0.36 | 0.36 | 83 | 1012.5 |
| 20260905140428 | 72 | 125 | 4.0 | 16.0 | 0.00 | 0.36 | 0.36 | 85 | 1012.4 |
| 20260905140201 | 72 | 125 | 4.0 | 16.0 | 0.00 | 0.36 | 0.36 | 85 | 1012.4 |
| 20260905135459 | 70 | 178 | 4.0 | 16.0 | 0.00 | 0.36 | 0.36 | 89 | 1011.5 |
| 20260905135428 | 70 | 178 | 4.0 | 16.0 | 0.00 | 0.36 | 0.36 | 89 | 1011.5 |
| 20260905134807 | 70 | 169 | 3.0 | 10.0 | 0.00 | 0.36 | 0.36 | 89 | 1012.2 |
| 20260905134428 | 70 | 157 | 2.0 | 9.0 | 0.00 | 0.36 | 0.36 | 91 | 1013.1 |
| 20260905134101 | 70 | 157 | 2.0 | 9.0 | 0.00 | 0.36 | 0.36 | 91 | 1013.1 |
| 20260905133428 | 70 | 56 | 1.0 | 5.0 | 0.00 | 0.36 | 0.36 | 90 | 1013.3 |
| 20260905133402 | 70 | 56 | 1.0 | 5.0 | 0.00 | 0.36 | 0.36 | 90 | 1013.3 |
| 20260905132703 | 70 | 126 | 1.0 | 12.0 | 0.00 | 0.36 | 0.36 | 90 | 1013.5 |
| 20260905132428 | 70 | 156 | 2.0 | 12.0 | 0.00 | 0.36 | 0.36 | 90 | 1013.7 |
| 20260905132000 | 70 | 145 | 3.0 | 9.0 | 0.00 | 0.36 | 0.36 | 90 | 1013.9 |
| 20260905131429 | 70 | 184 | 3.0 | 9.0 | 0.00 | 0.36 | 0.36 | 90 | 1014.2 |
| 20260905131301 | 70 | 184 | 3.0 | 9.0 | 0.00 | 0.36 | 0.36 | 90 | 1014.2 |
| 20260905130602 | 70 | 189 | 2.0 | 12.0 | 0.00 | 0.36 | 0.36 | 91 | 1014.3 |
| 20260905130429 | 69 | 160 | 4.0 | 12.0 | 0.00 | 0.36 | 0.36 | 92 | 1014.4 |
| 20260905125902 | 69 | 159 | 2.0 | 10.0 | 0.00 | 0.36 | 0.36 | 93 | 1014.3 |
| 20260905125429 | 69 | 175 | 2.0 | 7.0 | 0.00 | 0.36 | 0.36 | 94 | 1014.3 |
| 20260905125202 | 69 | 175 | 2.0 | 7.0 | 0.00 | 0.36 | 0.36 | 94 | 1014.3 |
| 20260905124502 | 69 | 159 | 2.0 | 6.0 | 0.00 | 0.36 | 0.36 | 95 | 1014.4 |
| 20260905124428 | 69 | 159 | 2.0 | 6.0 | 0.00 | 0.36 | 0.36 | 95 | 1014.4 |
| 20260905123800 | 69 | 173 | 1.0 | 5.0 | 0.00 | 0.36 | 0.36 | 95 | 1014.3 |
| 20260905123428 | 69 | 90 | 1.0 | 5.0 | 0.00 | 0.36 | 0.36 | 95 | 1014.2 |
| 20260905123100 | 69 | 90 | 1.0 | 5.0 | 0.00 | 0.36 | 0.36 | 95 | 1014.2 |
| 20260905122428 | 69 | 96 | 2.0 | 7.0 | 0.00 | 0.36 | 0.36 | 95 | 1014.1 |
| 20260905122401 | 69 | 96 | 2.0 | 7.0 | 0.00 | 0.36 | 0.36 | 95 | 1014.1 |
| 20260905121700 | 70 | 99 | 3.0 | 7.0 | 0.00 | 0.36 | 0.36 | 94 | 1014.3 |
| 20260905121428 | 70 | 132 | 1.0 | 11.0 | 0.00 | 0.36 | 0.36 | 95 | 1014.4 |
| 20260905121001 | 69 | 104 | 4.0 | 11.0 | 0.00 | 0.36 | 0.36 | 95 | 1014.4 |
| 20260905120428 | 69 | 102 | 5.0 | 10.0 | 0.00 | 0.36 | 0.36 | 98 | 1014.1 |
| 20260905115559 | 69 | 123 | 1.0 | 4.0 | 0.22 | 0.35 | 0.35 | 100 | 1015.0 |
| 20260905115428 | 69 | 174 | 1.0 | 4.0 | 0.22 | 0.35 | 0.35 | 100 | 1015.3 |
| 20260905114859 | 69 | 162 | 1.0 | 4.0 | 0.21 | 0.34 | 0.34 | 100 | 1015.3 |
| 20260905114427 | 70 | 168 | 1.0 | 5.0 | 0.19 | 0.32 | 0.32 | 100 | 1015.3 |
| 20260905114203 | 70 | 168 | 1.0 | 5.0 | 0.19 | 0.32 | 0.32 | 100 | 1015.3 |
| 20260905113458 | 71 | 181 | 2.0 | 4.0 | 0.14 | 0.27 | 0.27 | 100 | 1015.5 |
| 20260905113427 | 71 | 181 | 2.0 | 4.0 | 0.14 | 0.27 | 0.27 | 100 | 1015.5 |
| 20260905112759 | 71 | 235 | 0.0 | 6.0 | 0.12 | 0.25 | 0.25 | 100 | 1015.7 |
| 20260905112427 | 71 | 244 | 2.0 | 6.0 | 0.09 | 0.22 | 0.22 | 100 | 1015.7 |
| 20260905112101 | 71 | 244 | 2.0 | 6.0 | 0.09 | 0.22 | 0.22 | 100 | 1015.7 |
| 20260905111429 | 72 | 171 | 1.0 | 4.0 | 0.04 | 0.17 | 0.17 | 100 | 1015.7 |
| 20260905111402 | 72 | 171 | 1.0 | 4.0 | 0.04 | 0.17 | 0.17 | 100 | 1015.7 |
| 20260905110429 | 72 | 228 | 3.0 | 7.0 | 0.13 | 0.13 | 0.13 | 100 | 1015.7 |
| 20260905110004 | 73 | 168 | 1.0 | 7.0 | 0.10 | 0.10 | 0.10 | 100 | 1015.4 |
| 20260905105428 | 73 | 207 | 2.0 | 11.0 | 0.09 | 0.09 | 0.09 | 100 | 1015.2 |
| 20260905105306 | 73 | 207 | 2.0 | 11.0 | 0.09 | 0.09 | 0.09 | 100 | 1015.2 |
| 20260905104603 | 73 | 228 | 4.0 | 11.0 | 0.08 | 0.08 | 0.08 | 100 | 1014.8 |
| 20260905104427 | 73 | 195 | 2.0 | 10.0 | 0.07 | 0.07 | 0.07 | 100 | 1014.5 |
| 20260905103858 | 73 | 204 | 4.0 | 17.0 | 0.06 | 0.06 | 0.06 | 100 | 1014.3 |
| 20260905103427 | 73 | 223 | 6.0 | 17.0 | 0.06 | 0.06 | 0.06 | 100 | 1014.0 |
| 20260905102503 | 72 | 204 | 2.0 | 5.0 | 0.02 | 0.02 | 0.02 | 100 | 1013.8 |
| 20260905102429 | 72 | 204 | 2.0 | 5.0 | 0.02 | 0.02 | 0.02 | 100 | 1013.8 |
| 20260905101801 | 72 | 183 | 1.0 | 4.0 | 0.00 | 0.00 | 0.00 | 100 | 1013.7 |
| 20260905101429 | 72 | 132 | 1.0 | 4.0 | 0.00 | 0.00 | 0.00 | 100 | 1013.7 |
| 20260905101100 | 72 | 132 | 1.0 | 4.0 | 0.00 | 0.00 | 0.00 | 100 | 1013.7 |
| 20260905100428 | 72 | 99 | 2.0 | 6.0 | 0.00 | 0.00 | 0.00 | 100 | 1013.8 |
| 20260905100400 | 72 | 99 | 2.0 | 6.0 | 0.00 | 0.00 | 0.00 | 100 | 1013.8 |
| 20260905095706 | 72 | 99 | 1.0 | 8.0 | 0.00 | 0.00 | 0.00 | 100 | 1013.5 |
| 20260905095428 | 72 | 100 | 3.0 | 8.0 | 0.00 | 0.00 | 0.00 | 100 | 1013.2 |
| 20260905095001 | 73 | 97 | 4.0 | 6.0 | 0.00 | 0.00 | 0.00 | 100 | 1012.7 |
| 20260905094428 | 73 | 170 | 1.0 | 8.0 | 0.00 | 0.00 | 0.00 | 100 | 1012.1 |
| 20260905094302 | 73 | 170 | 1.0 | 8.0 | 0.00 | 0.00 | 0.00 | 100 | 1012.1 |
| 20260905093559 | 73 | 107 | 3.0 | 8.0 | 0.00 | 0.00 | 0.00 | 100 | 1011.8 |
| 20260905093428 | 73 | 110 | 3.0 | 8.0 | 0.00 | 0.00 | 0.00 | 100 | 1011.8 |
| 20260905092859 | 73 | 146 | 2.0 | 7.0 | 0.00 | 0.00 | 0.00 | 100 | 1012.4 |
| 20260905092428 | 73 | 100 | 4.0 | 9.0 | 0.00 | 0.00 | 0.00 | 100 | 1012.8 |
| 20260905092159 | 73 | 100 | 4.0 | 9.0 | 0.00 | 0.00 | 0.00 | 100 | 1012.8 |
| 20260905091500 | 73 | 104 | 4.0 | 7.0 | 0.00 | 0.00 | 0.00 | 100 | 1012.8 |
| 20260905091427 | 73 | 104 | 4.0 | 7.0 | 0.00 | 0.00 | 0.00 | 100 | 1012.8 |
| 20260905090801 | 73 | 106 | 3.0 | 7.0 | 0.00 | 0.00 | 0.00 | 100 | 1013.0 |
| 20260905090427 | 73 | 89 | 4.0 | 7.0 | 0.00 | 0.00 | 0.00 | 100 | 1013.0 |
| 20260905085428 | 74 | 104 | 4.0 | 6.0 | 0.00 | 0.00 | 0.00 | 100 | 1012.9 |
| 20260905085401 | 74 | 104 | 4.0 | 6.0 | 0.00 | 0.00 | 0.00 | 100 | 1012.9 |
| 20260905084703 | 74 | 103 | 4.0 | 6.0 | 0.00 | 0.00 | 0.00 | 100 | 1012.9 |
| 20260905084428 | 74 | 103 | 1.0 | 4.0 | 0.00 | 0.00 | 0.00 | 100 | 1013.1 |
| 20260905084003 | 73 | 103 | 3.0 | 4.0 | 0.00 | 0.00 | 0.00 | 100 | 1013.2 |
| 20260905083428 | 73 | 103 | 2.0 | 6.0 | 0.00 | 0.00 | 0.00 | 100 | 1013.3 |
| 20260905083302 | 73 | 103 | 2.0 | 6.0 | 0.00 | 0.00 | 0.00 | 100 | 1013.3 |
| 20260905082600 | 73 | 103 | 2.0 | 6.0 | 0.00 | 0.00 | 0.00 | 100 | 1012.8 |
| 20260905082428 | 73 | 103 | 2.0 | 5.0 | 0.00 | 0.00 | 0.00 | 100 | 1012.8 |
| 20260905081859 | 73 | 104 | 0.0 | 1.0 | 0.00 | 0.00 | 0.00 | 100 | 1012.8 |
| 20260905081427 | 73 | 103 | 0.0 | 3.0 | 0.00 | 0.00 | 0.00 | 100 | 1012.9 |
| 20260905081159 | 73 | 103 | 0.0 | 3.0 | 0.00 | 0.00 | 0.00 | 100 | 1012.9 |
| 20260905080503 | 73 | 103 | 2.0 | 7.0 | 0.00 | 0.00 | 0.00 | 100 | 1012.5 |
| 20260905080427 | 73 | 103 | 2.0 | 7.0 | 0.00 | 0.00 | 0.00 | 100 | 1012.5 |
| 20260905075800 | 73 | 96 | 4.0 | 9.0 | 0.00 | 0.00 | 0.00 | 100 | 1012.2 |
| 20260905075428 | 73 | 96 | 5.0 | 9.0 | 0.00 | 0.00 | 0.00 | 100 | 1012.2 |
| 20260905075100 | 73 | 96 | 5.0 | 9.0 | 0.00 | 0.00 | 0.00 | 100 | 1012.2 |
| 20260905074428 | 73 | 92 | 4.0 | 8.0 | 0.00 | 0.00 | 0.00 | 100 | 1012.7 |
| 20260905074401 | 73 | 92 | 4.0 | 8.0 | 0.00 | 0.00 | 0.00 | 100 | 1012.7 |
| 20260905073659 | 72 | 74 | 3.0 | 8.0 | 0.00 | 0.00 | 0.00 | 100 | 1012.9 |
| 20260905073428 | 72 | 102 | 4.0 | 8.0 | 0.00 | 0.00 | 0.00 | 100 | 1012.7 |
| 20260905073000 | 72 | 93 | 4.0 | 7.0 | 0.00 | 0.00 | 0.00 | 100 | 1012.8 |
| 20260905072428 | 72 | 90 | 4.0 | 7.0 | 0.00 | 0.00 | 0.00 | 100 | 1012.7 |
| 20260905072308 | 72 | 90 | 4.0 | 7.0 | 0.00 | 0.00 | 0.00 | 100 | 1012.7 |
| 20260905071427 | 71 | 99 | 4.0 | 7.0 | 0.00 | 0.00 | 0.00 | 100 | 1012.9 |
| 20260905070901 | 71 | 61 | 2.0 | 5.0 | 0.00 | 0.00 | 0.00 | 100 | 1012.9 |
| 20260905070427 | 71 | 61 | 1.0 | 5.0 | 0.00 | 0.00 | 0.00 | 100 | 1013.1 |
| 20260905070205 | 71 | 61 | 1.0 | 5.0 | 0.00 | 0.00 | 0.00 | 100 | 1013.1 |
| 20260905065459 | 71 | 101 | 1.0 | 4.0 | 0.00 | 0.00 | 0.00 | 100 | 1013.3 |
| 20260905065427 | 71 | 101 | 1.0 | 4.0 | 0.00 | 0.00 | 0.00 | 100 | 1013.3 |
| 20260905064800 | 71 | 101 | 1.0 | 4.0 | 0.00 | 0.00 | 0.00 | 100 | 1013.3 |
| 20260905064429 | 70 | 101 | 1.0 | 3.0 | 0.00 | 0.00 | 0.00 | 100 | 1013.3 |
| 20260905064104 | 70 | 101 | 1.0 | 3.0 | 0.00 | 0.00 | 0.00 | 100 | 1013.3 |
| 20260905063429 | 71 | 101 | 1.0 | 2.0 | 0.00 | 0.00 | 0.00 | 100 | 1013.4 |
| 20260905063401 | 71 | 101 | 1.0 | 2.0 | 0.00 | 0.00 | 0.00 | 100 | 1013.4 |
| 20260905062703 | 71 | 101 | 0.0 | 2.0 | 0.00 | 0.00 | 0.00 | 100 | 1013.4 |
| 20260905062429 | 71 | 101 | 0.0 | 2.0 | 0.00 | 0.00 | 0.00 | 100 | 1013.3 |
| 20260905062006 | 71 | 101 | 0.0 | 2.0 | 0.00 | 0.00 | 0.00 | 100 | 1013.1 |
| 20260905061427 | 71 | 101 | 0.0 | 2.0 | 0.00 | 0.00 | 0.00 | 100 | 1013.3 |
| 20260905061259 | 71 | 101 | 0.0 | 2.0 | 0.00 | 0.00 | 0.00 | 100 | 1013.3 |
| 20260905060559 | 71 | 101 | 1.0 | 4.0 | 0.00 | 0.00 | 0.00 | 100 | 1013.2 |
| 20260905060427 | 71 | 101 | 1.0 | 4.0 | 0.00 | 0.00 | 0.00 | 100 | 1013.2 |
| 20260905055900 | 71 | 101 | 2.0 | 4.0 | 0.00 | 0.00 | 0.00 | 100 | 1013.2 |
| 20260905055429 | 71 | 101 | 0.0 | 0.0 | 0.00 | 0.00 | 0.00 | 100 | 1013.2 |
| 20260905055202 | 71 | 101 | 0.0 | 0.0 | 0.00 | 0.00 | 0.00 | 100 | 1013.2 |
| 20260905054501 | 71 | 101 | 0.0 | 0.0 | 0.00 | 0.00 | 0.00 | 100 | 1013.2 |
| 20260905054429 | 71 | 101 | 0.0 | 0.0 | 0.00 | 0.00 | 0.00 | 100 | 1013.2 |
| 20260905053803 | 71 | 101 | 0.0 | 0.0 | 0.00 | 0.00 | 0.00 | 100 | 1013.2 |
| 20260905053429 | 71 | 101 | 0.0 | 0.0 | 0.00 | 0.00 | 0.00 | 100 | 1013.1 |
| 20260905053100 | 71 | 101 | 0.0 | 0.0 | 0.00 | 0.00 | 0.00 | 100 | 1013.1 |
| 20260905052428 | 71 | 101 | 0.0 | 0.0 | 0.00 | 0.00 | 0.00 | 100 | 1013.0 |
| 20260905052402 | 71 | 101 | 0.0 | 0.0 | 0.00 | 0.00 | 0.00 | 100 | 1013.0 |
| 20260905051700 | 72 | 101 | 0.0 | 0.0 | 0.00 | 0.00 | 0.00 | 100 | 1012.9 |
| 20260905051428 | 72 | 101 | 0.0 | 0.0 | 0.00 | 0.00 | 0.00 | 99 | 1012.8 |
| 20260905050959 | 72 | 101 | 0.0 | 0.0 | 0.00 | 0.00 | 0.00 | 99 | 1012.8 |
| 20260905050428 | 72 | 101 | 0.0 | 0.0 | 0.00 | 0.00 | 0.00 | 99 | 1013.0 |
| 20260905050306 | 72 | 101 | 0.0 | 0.0 | 0.00 | 0.00 | 0.00 | 99 | 1013.0 |
| 20260905045603 | 72 | 101 | 0.0 | 1.0 | 0.00 | 0.00 | 0.00 | 99 | 1012.8 |
| 20260905045428 | 72 | 101 | 0.0 | 4.0 | 0.00 | 0.00 | 0.00 | 98 | 1012.9 |
| 20260905044901 | 73 | 101 | 1.0 | 4.0 | 0.00 | 0.00 | 0.00 | 98 | 1012.8 |
| 20260905044428 | 73 | 101 | 1.0 | 3.0 | 0.00 | 0.00 | 0.00 | 98 | 1012.7 |
| 20260905044200 | 73 | 101 | 1.0 | 3.0 | 0.00 | 0.00 | 0.00 | 98 | 1012.7 |
| 20260905043500 | 73 | 101 | 0.0 | 1.0 | 0.00 | 0.00 | 0.00 | 98 | 1012.7 |
| 20260905043428 | 73 | 101 | 0.0 | 1.0 | 0.00 | 0.00 | 0.00 | 98 | 1012.7 |
| 20260905042806 | 73 | 101 | 0.0 | 2.0 | 0.00 | 0.00 | 0.00 | 97 | 1012.7 |
| 20260905042427 | 73 | 101 | 1.0 | 2.0 | 0.00 | 0.00 | 0.00 | 97 | 1012.7 |
| 20260905042103 | 73 | 101 | 1.0 | 2.0 | 0.00 | 0.00 | 0.00 | 97 | 1012.7 |
| 20260905041427 | 73 | 101 | 1.0 | 4.0 | 0.00 | 0.00 | 0.00 | 97 | 1012.7 |
| 20260905041359 | 73 | 101 | 1.0 | 4.0 | 0.00 | 0.00 | 0.00 | 97 | 1012.7 |
| 20260905040659 | 73 | 101 | 1.0 | 4.0 | 0.00 | 0.00 | 0.00 | 97 | 1012.7 |
| 20260905040429 | 73 | 101 | 3.0 | 5.0 | 0.00 | 0.00 | 0.00 | 96 | 1012.8 |
| 20260905040002 | 73 | 101 | 3.0 | 7.0 | 0.00 | 0.00 | 0.00 | 96 | 1012.8 |
| 20260905035429 | 74 | 101 | 3.0 | 7.0 | 0.00 | 0.00 | 0.00 | 96 | 1012.8 |
| 20260905035300 | 74 | 101 | 3.0 | 7.0 | 0.00 | 0.00 | 0.00 | 96 | 1012.8 |
| 20260905034429 | 74 | 97 | 3.0 | 6.0 | 0.00 | 0.00 | 0.00 | 96 | 1012.9 |
| 20260905033905 | 74 | 102 | 3.0 | 6.0 | 0.00 | 0.00 | 0.00 | 96 | 1013.0 |
| 20260905033428 | 74 | 102 | 2.0 | 7.0 | 0.00 | 0.00 | 0.00 | 96 | 1012.9 |
| 20260905033206 | 74 | 102 | 2.0 | 7.0 | 0.00 | 0.00 | 0.00 | 96 | 1012.9 |
| 20260905032506 | 74 | 101 | 3.0 | 6.0 | 0.00 | 0.00 | 0.00 | 95 | 1012.9 |
| 20260905032427 | 74 | 101 | 3.0 | 6.0 | 0.00 | 0.00 | 0.00 | 95 | 1012.9 |
| 20260905031759 | 74 | 87 | 2.0 | 5.0 | 0.00 | 0.00 | 0.00 | 95 | 1012.8 |
| 20260905031427 | 74 | 87 | 2.0 | 5.0 | 0.00 | 0.00 | 0.00 | 95 | 1012.8 |
| 20260905031101 | 74 | 87 | 2.0 | 5.0 | 0.00 | 0.00 | 0.00 | 95 | 1012.8 |
| 20260905030429 | 75 | 98 | 2.0 | 5.0 | 0.00 | 0.00 | 0.00 | 94 | 1012.7 |
| 20260905030400 | 75 | 98 | 2.0 | 5.0 | 0.00 | 0.00 | 0.00 | 94 | 1012.7 |
| 20260905025428 | 75 | 103 | 4.0 | 8.0 | 0.00 | 0.00 | 0.00 | 94 | 1012.5 |
| 20260905025000 | 75 | 96 | 4.0 | 8.0 | 0.00 | 0.00 | 0.00 | 93 | 1012.5 |
| 20260905024428 | 75 | 89 | 1.0 | 4.0 | 0.00 | 0.00 | 0.00 | 92 | 1012.6 |
| 20260905024303 | 75 | 89 | 1.0 | 4.0 | 0.00 | 0.00 | 0.00 | 92 | 1012.6 |
| 20260905023601 | 75 | 89 | 1.0 | 4.0 | 0.00 | 0.00 | 0.00 | 92 | 1012.5 |
| 20260905023428 | 76 | 74 | 2.0 | 5.0 | 0.00 | 0.00 | 0.00 | 92 | 1012.5 |
| 20260905022900 | 76 | 47 | 2.0 | 5.0 | 0.00 | 0.00 | 0.00 | 91 | 1012.4 |
| 20260905022428 | 76 | 81 | 2.0 | 5.0 | 0.00 | 0.00 | 0.00 | 90 | 1012.3 |
| 20260905022203 | 76 | 81 | 2.0 | 5.0 | 0.00 | 0.00 | 0.00 | 90 | 1012.3 |
| 20260905021506 | 76 | 44 | 1.0 | 5.0 | 0.00 | 0.00 | 0.00 | 89 | 1012.2 |
| 20260905021428 | 76 | 44 | 1.0 | 5.0 | 0.00 | 0.00 | 0.00 | 89 | 1012.2 |
| 20260905020803 | 77 | 134 | 2.0 | 5.0 | 0.00 | 0.00 | 0.00 | 88 | 1012.2 |
| 20260905020427 | 77 | 48 | 1.0 | 3.0 | 0.00 | 0.00 | 0.00 | 87 | 1012.1 |
| 20260905020059 | 77 | 48 | 1.0 | 3.0 | 0.00 | 0.00 | 0.00 | 87 | 1012.1 |
| 20260905015427 | 78 | 48 | 1.0 | 6.0 | 0.00 | 0.00 | 0.00 | 86 | 1012.0 |
| 20260905015402 | 78 | 48 | 1.0 | 6.0 | 0.00 | 0.00 | 0.00 | 86 | 1012.0 |
| 20260905014703 | 78 | 53 | 3.0 | 6.0 | 0.00 | 0.00 | 0.00 | 85 | 1011.8 |
| 20260905014427 | 79 | 69 | 2.0 | 6.0 | 0.00 | 0.00 | 0.00 | 84 | 1011.8 |
| 20260905013959 | 79 | 115 | 2.0 | 7.0 | 0.00 | 0.00 | 0.00 | 83 | 1011.8 |
| 20260905013429 | 79 | 115 | 3.0 | 8.0 | 0.00 | 0.00 | 0.00 | 83 | 1011.7 |
| 20260905013301 | 79 | 115 | 3.0 | 8.0 | 0.00 | 0.00 | 0.00 | 83 | 1011.7 |
| 20260905012606 | 80 | 100 | 3.0 | 8.0 | 0.00 | 0.00 | 0.00 | 82 | 1011.6 |
| 20260905012429 | 80 | 113 | 3.0 | 7.0 | 0.00 | 0.00 | 0.00 | 81 | 1011.6 |
| 20260905011900 | 80 | 106 | 2.0 | 9.0 | 0.00 | 0.00 | 0.00 | 81 | 1011.6 |
| 20260905011428 | 81 | 94 | 3.0 | 9.0 | 0.00 | 0.00 | 0.00 | 80 | 1011.6 |
| 20260905011203 | 81 | 94 | 3.0 | 9.0 | 0.00 | 0.00 | 0.00 | 80 | 1011.6 |
| 20260905010459 | 81 | 90 | 5.0 | 9.0 | 0.00 | 0.00 | 0.00 | 79 | 1011.4 |
| 20260905010428 | 81 | 90 | 5.0 | 9.0 | 0.00 | 0.00 | 0.00 | 79 | 1011.4 |
| 20260905005759 | 82 | 95 | 6.0 | 9.0 | 0.00 | 0.00 | 0.00 | 78 | 1011.5 |
| 20260905005428 | 82 | 98 | 6.0 | 9.0 | 0.00 | 0.00 | 0.00 | 77 | 1011.4 |
| 20260905005109 | 82 | 98 | 6.0 | 9.0 | 0.00 | 0.00 | 0.00 | 77 | 1011.4 |
| 20260905004428 | 83 | 92 | 5.0 | 8.0 | 0.00 | 0.00 | 0.00 | 76 | 1011.4 |
| 20260905004402 | 83 | 92 | 5.0 | 8.0 | 0.00 | 0.00 | 0.00 | 76 | 1011.4 |
| 20260905003702 | 83 | 90 | 5.0 | 10.0 | 0.00 | 0.00 | 0.00 | 75 | 1011.5 |
| 20260905003428 | 83 | 100 | 4.0 | 10.0 | 0.00 | 0.00 | 0.00 | 74 | 1011.5 |
| 20260905002959 | 83 | 91 | 5.0 | 8.0 | 0.00 | 0.00 | 0.00 | 73 | 1011.3 |
| 20260905002428 | 84 | 94 | 5.0 | 9.0 | 0.00 | 0.00 | 0.00 | 72 | 1011.3 |
| 20260905002301 | 84 | 94 | 5.0 | 9.0 | 0.00 | 0.00 | 0.00 | 72 | 1011.3 |
| 20260905001603 | 84 | 89 | 5.0 | 9.0 | 0.00 | 0.00 | 0.00 | 71 | 1011.3 |
| 20260905001427 | 84 | 100 | 5.0 | 8.0 | 0.00 | 0.00 | 0.00 | 70 | 1011.2 |
| 20260905000858 | 85 | 100 | 4.0 | 9.0 | 0.00 | 0.00 | 0.00 | 69 | 1011.2 |
| 20260905000428 | 85 | 95 | 5.0 | 10.0 | 0.00 | 0.00 | 0.00 | 68 | 1011.1 |
| 20260905000204 | 85 | 95 | 5.0 | 10.0 | 0.00 | 0.00 | 0.00 | 68 | 1011.1 |
| 20260904235501 | 85 | 92 | 5.0 | 9.0 | 0.00 | 0.00 | 0.00 | 67 | 1011.2 |
| 20260904235429 | 85 | 92 | 5.0 | 9.0 | 0.00 | 0.00 | 0.00 | 67 | 1011.2 |
| 20260904234801 | 86 | 98 | 6.0 | 10.0 | 0.00 | 0.00 | 0.00 | 65 | 1011.2 |
| 20260904234429 | 86 | 92 | 6.0 | 10.0 | 0.00 | 0.00 | 0.00 | 64 | 1011.3 |
| 20260904234104 | 86 | 92 | 6.0 | 10.0 | 0.00 | 0.00 | 0.00 | 64 | 1011.3 |
| 20260904233429 | 86 | 104 | 6.0 | 10.0 | 0.00 | 0.00 | 0.00 | 64 | 1011.4 |
| 20260904233400 | 86 | 104 | 6.0 | 10.0 | 0.00 | 0.00 | 0.00 | 64 | 1011.4 |
| 20260904232701 | 86 | 85 | 6.0 | 11.0 | 0.00 | 0.00 | 0.00 | 63 | 1011.3 |
| 20260904232428 | 86 | 92 | 6.0 | 12.0 | 0.00 | 0.00 | 0.00 | 64 | 1011.3 |
| 20260904232000 | 87 | 105 | 7.0 | 12.0 | 0.00 | 0.00 | 0.00 | 63 | 1011.2 |
| 20260904231428 | 87 | 100 | 6.0 | 11.0 | 0.00 | 0.00 | 0.00 | 62 | 1011.1 |
| 20260904231300 | 87 | 100 | 6.0 | 11.0 | 0.00 | 0.00 | 0.00 | 62 | 1011.1 |
| 20260904230607 | 87 | 88 | 5.0 | 12.0 | 0.00 | 0.00 | 0.00 | 61 | 1011.2 |
| 20260904230428 | 87 | 97 | 7.0 | 12.0 | 0.00 | 0.00 | 0.00 | 60 | 1011.0 |
| 20260904225859 | 87 | 100 | 6.0 | 11.0 | 0.00 | 0.00 | 0.00 | 61 | 1011.1 |
| 20260904225428 | 88 | 95 | 6.0 | 9.0 | 0.00 | 0.00 | 0.00 | 61 | 1011.2 |
| 20260904224500 | 88 | 81 | 5.0 | 13.0 | 0.00 | 0.00 | 0.00 | 59 | 1011.2 |
| 20260904224428 | 88 | 81 | 5.0 | 13.0 | 0.00 | 0.00 | 0.00 | 59 | 1011.2 |
| 20260904223800 | 88 | 94 | 7.0 | 13.0 | 0.00 | 0.00 | 0.00 | 59 | 1011.1 |
| 20260904223429 | 88 | 95 | 8.0 | 12.0 | 0.00 | 0.00 | 0.00 | 58 | 1011.2 |
| 20260904223101 | 88 | 95 | 8.0 | 12.0 | 0.00 | 0.00 | 0.00 | 58 | 1011.2 |
| 20260904222429 | 88 | 98 | 8.0 | 11.0 | 0.00 | 0.00 | 0.00 | 57 | 1011.3 |
| 20260904222403 | 88 | 98 | 8.0 | 11.0 | 0.00 | 0.00 | 0.00 | 57 | 1011.3 |
| 20260904221700 | 89 | 99 | 7.0 | 12.0 | 0.00 | 0.00 | 0.00 | 56 | 1011.4 |
| 20260904221428 | 89 | 96 | 8.0 | 12.0 | 0.00 | 0.00 | 0.00 | 56 | 1011.4 |
| 20260904221001 | 89 | 79 | 4.0 | 12.0 | 0.00 | 0.00 | 0.00 | 56 | 1011.5 |
| 20260904220428 | 89 | 87 | 5.0 | 10.0 | 0.00 | 0.00 | 0.00 | 56 | 1011.4 |
| 20260904220304 | 89 | 87 | 5.0 | 10.0 | 0.00 | 0.00 | 0.00 | 56 | 1011.4 |
| 20260904215602 | 89 | 96 | 6.0 | 10.0 | 0.00 | 0.00 | 0.00 | 55 | 1011.4 |
| 20260904215428 | 89 | 94 | 5.0 | 10.0 | 0.00 | 0.00 | 0.00 | 55 | 1011.4 |
| 20260904214900 | 89 | 95 | 6.0 | 11.0 | 0.00 | 0.00 | 0.00 | 55 | 1011.5 |
| 20260904214428 | 89 | 94 | 7.0 | 11.0 | 0.00 | 0.00 | 0.00 | 56 | 1011.5 |
| 20260904214159 | 89 | 94 | 7.0 | 11.0 | 0.00 | 0.00 | 0.00 | 56 | 1011.5 |
| 20260904213501 | 89 | 88 | 5.0 | 10.0 | 0.00 | 0.00 | 0.00 | 55 | 1011.6 |
| 20260904213428 | 89 | 88 | 5.0 | 10.0 | 0.00 | 0.00 | 0.00 | 55 | 1011.6 |
| 20260904212759 | 89 | 100 | 7.0 | 10.0 | 0.00 | 0.00 | 0.00 | 53 | 1011.5 |
| 20260904212427 | 90 | 97 | 6.0 | 9.0 | 0.00 | 0.00 | 0.00 | 53 | 1011.4 |
| 20260904212059 | 90 | 97 | 6.0 | 9.0 | 0.00 | 0.00 | 0.00 | 53 | 1011.4 |
| 20260904211427 | 90 | 97 | 6.0 | 10.0 | 0.00 | 0.00 | 0.00 | 52 | 1011.4 |
| 20260904211403 | 90 | 97 | 6.0 | 10.0 | 0.00 | 0.00 | 0.00 | 52 | 1011.4 |
| 20260904210659 | 90 | 83 | 5.0 | 9.0 | 0.00 | 0.00 | 0.00 | 52 | 1011.6 |
| 20260904210427 | 90 | 95 | 5.0 | 10.0 | 0.00 | 0.00 | 0.00 | 51 | 1011.5 |
| 20260904205959 | 90 | 76 | 5.0 | 10.0 | 0.00 | 0.00 | 0.00 | 51 | 1011.5 |
| 20260904205429 | 90 | 68 | 4.0 | 8.0 | 0.00 | 0.00 | 0.00 | 51 | 1011.6 |
| 20260904205306 | 90 | 68 | 4.0 | 8.0 | 0.00 | 0.00 | 0.00 | 51 | 1011.6 |
| 20260904204602 | 90 | 92 | 4.0 | 8.0 | 0.00 | 0.00 | 0.00 | 50 | 1011.6 |
| 20260904204429 | 90 | 104 | 5.0 | 9.0 | 0.00 | 0.00 | 0.00 | 50 | 1011.5 |
| 20260904203903 | 90 | 96 | 4.0 | 10.0 | 0.00 | 0.00 | 0.00 | 50 | 1011.6 |
| 20260904203428 | 90 | 102 | 6.0 | 10.0 | 0.00 | 0.00 | 0.00 | 50 | 1011.5 |
| 20260904203201 | 90 | 102 | 6.0 | 10.0 | 0.00 | 0.00 | 0.00 | 50 | 1011.5 |
| 20260904202501 | 90 | 103 | 5.0 | 11.0 | 0.00 | 0.00 | 0.00 | 46 | 1011.5 |
| 20260904202428 | 90 | 103 | 5.0 | 11.0 | 0.00 | 0.00 | 0.00 | 46 | 1011.5 |
| 20260904201800 | 90 | 97 | 6.0 | 11.0 | 0.00 | 0.00 | 0.00 | 48 | 1011.5 |
| 20260904201428 | 90 | 99 | 6.0 | 11.0 | 0.00 | 0.00 | 0.00 | 48 | 1011.4 |
| 20260904201107 | 90 | 99 | 6.0 | 11.0 | 0.00 | 0.00 | 0.00 | 48 | 1011.4 |
| 20260904200428 | 90 | 101 | 8.0 | 11.0 | 0.00 | 0.00 | 0.00 | 46 | 1011.5 |
| 20260904200401 | 90 | 101 | 8.0 | 11.0 | 0.00 | 0.00 | 0.00 | 46 | 1011.5 |
| 20260904195701 | 90 | 88 | 5.0 | 9.0 | 0.00 | 0.00 | 0.00 | 48 | 1011.5 |
| 20260904195428 | 90 | 104 | 5.0 | 9.0 | 0.00 | 0.00 | 0.00 | 48 | 1011.5 |
| 20260904195001 | 90 | 93 | 4.0 | 9.0 | 0.00 | 0.00 | 0.00 | 50 | 1011.5 |
| 20260904194429 | 90 | 88 | 4.0 | 10.0 | 0.00 | 0.00 | 0.00 | 49 | 1011.5 |
| 20260904194301 | 90 | 88 | 4.0 | 10.0 | 0.00 | 0.00 | 0.00 | 49 | 1011.5 |
| 20260904193605 | 90 | 80 | 5.0 | 10.0 | 0.00 | 0.00 | 0.00 | 50 | 1011.6 |
| 20260904193429 | 90 | 87 | 6.0 | 10.0 | 0.00 | 0.00 | 0.00 | 50 | 1011.7 |
| 20260904192429 | 90 | 93 | 5.0 | 10.0 | 0.00 | 0.00 | 0.00 | 48 | 1011.6 |
| 20260904192201 | 90 | 93 | 5.0 | 10.0 | 0.00 | 0.00 | 0.00 | 48 | 1011.6 |
| 20260904191502 | 90 | 99 | 6.0 | 10.0 | 0.00 | 0.00 | 0.00 | 48 | 1011.8 |
| 20260904191428 | 90 | 99 | 6.0 | 10.0 | 0.00 | 0.00 | 0.00 | 48 | 1011.8 |
| 20260904190801 | 90 | 95 | 5.0 | 10.0 | 0.00 | 0.00 | 0.00 | 47 | 1011.8 |
| 20260904190428 | 90 | 95 | 5.0 | 10.0 | 0.00 | 0.00 | 0.00 | 48 | 1011.9 |
| 20260904190059 | 90 | 95 | 5.0 | 10.0 | 0.00 | 0.00 | 0.00 | 48 | 1011.9 |
| 20260904185428 | 90 | 104 | 5.0 | 9.0 | 0.00 | 0.00 | 0.00 | 47 | 1011.9 |
| 20260904185401 | 90 | 104 | 5.0 | 9.0 | 0.00 | 0.00 | 0.00 | 47 | 1011.9 |
| 20260904184702 | 90 | 97 | 6.0 | 11.0 | 0.00 | 0.00 | 0.00 | 47 | 1011.8 |
| 20260904184428 | 90 | 104 | 7.0 | 11.0 | 0.00 | 0.00 | 0.00 | 46 | 1011.9 |
| 20260904183959 | 90 | 100 | 7.0 | 11.0 | 0.00 | 0.00 | 0.00 | 46 | 1011.7 |
| 20260904183427 | 90 | 88 | 5.0 | 11.0 | 0.00 | 0.00 | 0.00 | 48 | 1011.9 |
| 20260904183300 | 90 | 88 | 5.0 | 11.0 | 0.00 | 0.00 | 0.00 | 48 | 1011.9 |
| 20260904182601 | 90 | 94 | 6.0 | 10.0 | 0.00 | 0.00 | 0.00 | 48 | 1011.9 |
| 20260904182427 | 90 | 99 | 7.0 | 10.0 | 0.00 | 0.00 | 0.00 | 48 | 1011.8 |
| 20260904181902 | 90 | 81 | 5.0 | 11.0 | 0.00 | 0.00 | 0.00 | 49 | 1012.0 |
| 20260904181427 | 90 | 88 | 5.0 | 12.0 | 0.00 | 0.00 | 0.00 | 48 | 1011.9 |
| 20260904181200 | 90 | 88 | 5.0 | 12.0 | 0.00 | 0.00 | 0.00 | 48 | 1011.9 |